Regional Weather Roundup
Issued by NWS Albany, NY

Home | Current Version | Previous Version | Graphics & Text | Print | Product List | Glossary On
Versions: 1 2 3 4 5 6 7 8 9 10 11 12 13 14 15 16 17 18 19 20 21 22 23 24 25 26 27 28 29 30 31 32 33 34 35 36 37 38 39 40 41 42 43 44 45 46 47 48 49 50
000
ASUS41 KALY 211510
RWRALY

NEW YORK STATE HOURLY WEATHER ROUNDUP
NATIONAL WEATHER SERVICE ALBANY NY
1100 AM EDT FRI JUL 21 2017

NOTE: "FAIR" INDICATES FEW OR NO CLOUDS BELOW 12,000 FEET WITH NO
SIGNIFICANT WEATHER AND/OR NO OBSTRUCTIONS TO VISIBILITY.

NYZ032-033-038>043-046>054-057>066-NYZ062>081-082-084-211600-
EAST


CITY           SKY/WX    TMP DP  RH WIND       PRES   REMARKS
ALBANY         MOSUNNY   80  66  62 W9        29.91F
GLENS FALLS    SUNNY     76  64  66 VRB7      29.89F
POUGHKEEPSIE   SUNNY     82  67  60 W7        29.90F
NEWBURGH       MOSUNNY   79  72  78 W7        29.95S
MONTGOMERY     SUNNY     82  69  64 W9        29.92F
ISLIP          MOSUNNY   85  68  56 N7        29.90F
NEW YORK CITY  MOSUNNY   85  68  56 NW12      29.91F
CENTRAL PARK   MOSUNNY   85  67  54 VRB3      29.94F
$$

NYZ005>009-017-018-044>046-055-056-211600-
CENTRAL


CITY           SKY/WX    TMP DP  RH WIND       PRES   REMARKS
FULTON         MOSUNNY   80  69  69 W8        29.93S
SYRACUSE       MOSUNNY   78  69  73 W10       29.92S
ROME           CLOUDY    72  68  87 CALM      29.94S
ELMIRA         MOSUNNY   81  70  69 VRB3      29.96S
BINGHAMTON     SUNNY     75  64  68 N7        29.99S
$$

NYZ026>034-041>043-087-211600-
NORTH


CITY           SKY/WX    TMP DP  RH WIND       PRES   REMARKS
WATERTOWN      SUNNY     77  66  68 SW12      29.89S
FORT DRUM      NOT AVBL
OGDENSBURG     FAIR      77  66  68 SW5       29.86S
MASSENA        PTSUNNY   76  67  73 SW12      29.85S
SARANAC LAKE   CLOUDY    69  64  84 SW10      29.91S
PLATTSBURGH    SUNNY     76  62  62 SE13      29.84F
$$

NYZ001>004-010>016-019>021-085-211600-
WEST


CITY           SKY/WX    TMP DP  RH WIND       PRES   REMARKS
NIAGARA FALLS  CLOUDY    80  69  69 NW7       29.94S
BUFFALO        PTSUNNY   78  70  76 SW7       29.95S
DUNKIRK        MOSUNNY   80  71  74 W9        29.97R
JAMESTOWN      CLOUDY    77  66  69 W7        30.02S
WELLSVILLE     MOSUNNY   81  67  62 VRB6      30.03F
ROCHESTER      MOSUNNY   81  66  60 VRB7      29.94F
PENN YAN       MOSUNNY   80  61  52 NW6       29.97S
$$

             KEY
       WCI = WIND CHILL INDEX
       VSB = VISIBILITY
       HX  = HEAT INDEX
$$



USA.gov is the U.S. government's official web portal to all federal, state and local government web resources and services.